When you browse on this site, cookies collect data to enhance your experience and personalize the content and advertising you see.
Visit our Privacy Policy to learn more. By continuing to use the site, you agree to this use of cookies and data.
  • En España
  • Lista de países
  • Para 7 días
  • Temperatura del agua
  • Mapa Satelital
  • El tiempo en el mapa
  • Informadores
  • user-avatar
    Iniciar sesión

    Tiempo cada hora Luanda

    Hoy, 26 Junio, Miércoles

    Tiempo Temperatura Precipitaciones Viento Presión Humedad
    00:00 +19°C° 0 mm 4 mps 756 mmHg 93%
    01:00 +19°C° 0 mm 3 mps 756 mmHg 93%
    02:00 +20°C° 0 mm 3 mps 756 mmHg 90%
    03:00 +20°C° 0 mm 3 mps 756 mmHg 86%
    04:00 +21°C° 0 mm 3 mps 755 mmHg 82%
    05:00 +21°C° 0 mm 3 mps 756 mmHg 80%
    06:00 +21°C° 0 mm 2 mps 756 mmHg 78%
    07:00 +21°C° 0 mm 2 mps 757 mmHg 75%
    08:00 +24°C° 0 mm 2 mps 757 mmHg 68%
    09:00 +25°C° 0 mm 2 mps 757 mmHg 62%
    10:00 +27°C° 0 mm 1 mps 757 mmHg 55%
    11:00 +28°C° 0 mm 2 mps 756 mmHg 50%
    12:00 +30°C° 0 mm 3 mps 756 mmHg 45%
    13:00 +32°C° 0 mm 4 mps 755 mmHg 41%
    14:00 +30°C° 0 mm 5 mps 755 mmHg 47%
    15:00 +29°C° 0 mm 6 mps 754 mmHg 53%
    16:00 +27°C° 0 mm 6 mps 754 mmHg 59%
    17:00 +26°C° 0 mm 6 mps 754 mmHg 66%
    18:00 +23°C° 0 mm 5 mps 755 mmHg 74%
    19:00 +21°C° 0 mm 5 mps 755 mmHg 82%
    20:00 +21°C° 0 mm 5 mps 756 mmHg 85%
    21:00 +20°C° 0 mm 4 mps 756 mmHg 89%
    22:00 +20°C° 0 mm 4 mps 757 mmHg 92%
    23:00 +20°C° 0 mm 4 mps 757 mmHg 91%

    Mañana, 27 Junio, Jueves

    Tiempo Temperatura Precipitaciones Viento Presión Humedad
    00:00 +20°C° 0 mm 4 mps 757 mmHg 89%
    01:00 +20°C° 0 mm 3 mps 757 mmHg 88%
    02:00 +21°C° 0 mm 3 mps 756 mmHg 85%
    03:00 +21°C° 0 mm 3 mps 756 mmHg 83%
    04:00 +22°C° 0 mm 3 mps 756 mmHg 80%
    05:00 +22°C° 0 mm 3 mps 757 mmHg 79%
    06:00 +22°C° 0 mm 3 mps 757 mmHg 77%
    07:00 +23°C° 0 mm 2 mps 757 mmHg 76%
    08:00 +24°C° 0 mm 2 mps 757 mmHg 71%
    09:00 +25°C° 0 mm 2 mps 758 mmHg 66%
    10:00 +26°C° 0 mm 2 mps 758 mmHg 61%
    11:00 +27°C° 0 mm 3 mps 757 mmHg 55%
    12:00 +29°C° 0 mm 4 mps 757 mmHg 49%
    13:00 +30°C° 0 mm 4 mps 756 mmHg 43%
    14:00 +30°C° 0 mm 5 mps 755 mmHg 47%
    15:00 +29°C° 0 mm 6 mps 755 mmHg 51%
    16:00 +28°C° 0 mm 7 mps 754 mmHg 55%
    17:00 +26°C° 0 mm 6 mps 755 mmHg 63%
    18:00 +23°C° 0 mm 6 mps 755 mmHg 71%
    19:00 +22°C° 0 mm 6 mps 755 mmHg 79%
    20:00 +21°C° 0 mm 6 mps 756 mmHg 82%
    21:00 +21°C° 0 mm 5 mps 756 mmHg 85%
    22:00 +20°C° 0 mm 5 mps 756 mmHg 88%
    23:00 +20°C° 0 mm 5 mps 756 mmHg 88%

    Pasado mañana, 28 Junio, Viernes

    Tiempo Temperatura Precipitaciones Viento Presión Humedad
    00:00 +20°C° 0 mm 4 mps 756 mmHg 89%
    01:00 +19°C° 0 mm 4 mps 756 mmHg 90%
    02:00 +20°C° 0 mm 4 mps 756 mmHg 87%
    03:00 +20°C° 0 mm 3 mps 756 mmHg 83%
    04:00 +21°C° 0 mm 3 mps 756 mmHg 80%
    05:00 +20°C° 0 mm 3 mps 756 mmHg 82%
    06:00 +20°C° 0 mm 3 mps 756 mmHg 84%
    07:00 +20°C° 0 mm 2 mps 756 mmHg 85%
    08:00 +23°C° 0 mm 2 mps 756 mmHg 76%
    09:00 +25°C° 0 mm 3 mps 757 mmHg 66%
    10:00 +26°C° 0 mm 3 mps 757 mmHg 56%
    11:00 +28°C° 0 mm 4 mps 756 mmHg 51%
    12:00 +30°C° 0 mm 4 mps 756 mmHg 46%
    13:00 +32°C° 0 mm 5 mps 755 mmHg 41%
    14:00 +30°C° 0 mm 6 mps 754 mmHg 47%
    15:00 +28°C° 0 mm 7 mps 754 mmHg 53%
    16:00 +27°C° 0 mm 7 mps 753 mmHg 59%
    17:00 +24°C° 0 mm 7 mps 754 mmHg 66%
    18:00 +23°C° 0 mm 6 mps 754 mmHg 73%
    19:00 +21°C° 0 mm 6 mps 755 mmHg 80%
    20:00 +21°C° 0 mm 5 mps 755 mmHg 82%
    21:00 +20°C° 0 mm 5 mps 756 mmHg 85%
    22:00 +20°C° 0 mm 4 mps 756 mmHg 88%
    23:00 +19°C° 0 mm 4 mps 756 mmHg 90%

    29 Junio, Sábado

    Tiempo Temperatura Precipitaciones Viento Presión Humedad
    00:00 +19°C° 0 mm 3 mps 756 mmHg 92%
    01:00 +19°C° 0 mm 3 mps 756 mmHg 94%
    02:00 +18°C° 0 mm 3 mps 756 mmHg 93%
    03:00 +18°C° 0 mm 2 mps 756 mmHg 93%
    04:00 +18°C° 0 mm 2 mps 756 mmHg 93%
    05:00 +19°C° 0 mm 2 mps 756 mmHg 90%
    06:00 +20°C° 0 mm 2 mps 756 mmHg 87%
    07:00 +20°C° 0 mm 2 mps 757 mmHg 83%
    08:00 +23°C° 0 mm 2 mps 757 mmHg 77%
    09:00 +24°C° 0 mm 2 mps 757 mmHg 71%
    10:00 +25°C° 0 mm 2 mps 757 mmHg 65%
    11:00 +27°C° 0 mm 2 mps 757 mmHg 58%
    12:00 +29°C° 0 mm 3 mps 756 mmHg 50%
    13:00 +31°C° 0 mm 3 mps 755 mmHg 43%
    14:00 +29°C° 0 mm 4 mps 755 mmHg 48%
    15:00 +28°C° 0 mm 5 mps 754 mmHg 53%
    16:00 +27°C° 0 mm 6 mps 754 mmHg 58%
    17:00 +26°C° 0 mm 6 mps 754 mmHg 66%
    18:00 +23°C° 0 mm 6 mps 755 mmHg 74%
    19:00 +21°C° 0 mm 5 mps 755 mmHg 82%
    20:00 +21°C° 0 mm 5 mps 756 mmHg 86%
    21:00 +20°C° 0 mm 4 mps 756 mmHg 89%
    22:00 +20°C° 0 mm 4 mps 757 mmHg 92%
    23:00 +19°C° 0 mm 3 mps 757 mmHg 93%

    30 Junio, Domingo

    Tiempo Temperatura Precipitaciones Viento Presión Humedad
    00:00 +19°C° 0 mm 3 mps 757 mmHg 94%
    01:00 +19°C° 0 mm 3 mps 757 mmHg 95%
    02:00 +19°C° 0 mm 3 mps 757 mmHg 95%
    03:00 +19°C° 0 mm 3 mps 757 mmHg 95%
    04:00 +19°C° 0 mm 2 mps 756 mmHg 94%
    05:00 +19°C° 0 mm 2 mps 757 mmHg 90%
    06:00 +20°C° 0 mm 2 mps 757 mmHg 86%
    07:00 +21°C° 0 mm 2 mps 758 mmHg 82%
    08:00 +23°C° 0 mm 2 mps 758 mmHg 75%
    09:00 +25°C° 0 mm 2 mps 758 mmHg 68%
    10:00 +26°C° 0 mm 3 mps 758 mmHg 61%
    11:00 +28°C° 0 mm 3 mps 758 mmHg 56%
    12:00 +29°C° 0 mm 4 mps 757 mmHg 50%
    13:00 +30°C° 0 mm 5 mps 756 mmHg 44%
    14:00 +30°C° 0 mm 5 mps 756 mmHg 47%
    15:00 +29°C° 0 mm 6 mps 755 mmHg 50%
    16:00 +28°C° 0 mm 7 mps 755 mmHg 53%
    17:00 +26°C° 0 mm 6 mps 755 mmHg 63%
    18:00 +23°C° 0 mm 6 mps 755 mmHg 73%
    19:00 +21°C° 0 mm 5 mps 755 mmHg 83%
    20:00 +21°C° 0 mm 5 mps 756 mmHg 86%
    21:00 +20°C° 0 mm 5 mps 756 mmHg 89%
    22:00 +20°C° 0 mm 4 mps 756 mmHg 92%
    23:00 +19°C° 0 mm 4 mps 756 mmHg 93%

    1 Julio, Lunes

    Tiempo Temperatura Precipitaciones Viento Presión Humedad
    00:00 +19°C° 0 mm 3 mps 756 mmHg 94%
    01:00 +19°C° 0 mm 3 mps 756 mmHg 95%
    02:00 +18°C° 0 mm 2 mps 755 mmHg 95%
    03:00 +18°C° 0 mm 2 mps 755 mmHg 95%
    04:00 +18°C° 0 mm 2 mps 755 mmHg 94%
    05:00 +19°C° 0 mm 2 mps 755 mmHg 93%
    06:00 +19°C° 0 mm 2 mps 755 mmHg 91%
    07:00 +20°C° 0 mm 2 mps 755 mmHg 90%
    08:00 +21°C° 0 mm 2 mps 755 mmHg 82%
    09:00 +24°C° 0 mm 2 mps 755 mmHg 73%
    10:00 +26°C° 0 mm 2 mps 756 mmHg 65%
    11:00 +28°C° 0 mm 2 mps 755 mmHg 58%
    12:00 +30°C° 0 mm 3 mps 754 mmHg 50%
    13:00 +33°C° 0 mm 4 mps 753 mmHg 43%
    14:00 +30°C° 0 mm 4 mps 753 mmHg 50%
    15:00 +29°C° 0 mm 5 mps 752 mmHg 56%
    16:00 +27°C° 0 mm 6 mps 752 mmHg 63%
    17:00 +26°C° 0 mm 5 mps 752 mmHg 71%
    18:00 +23°C° 0 mm 5 mps 753 mmHg 80%
    19:00 +21°C° 0 mm 4 mps 753 mmHg 88%
    20:00 +21°C° 0 mm 3 mps 753 mmHg 91%
    21:00 +20°C° 0 mm 2 mps 754 mmHg 93%
    22:00 +21°C° 0 mm 1 mps 754 mmHg 95%
    23:00 +21°C° 0 mm 1 mps 754 mmHg 95%
    Mostrar más